Airfield :
LOGIN :

Register | Disclaimer

   EN    FR    IT 

 










Legend :    VFR   Marginal VFR   IFR   Intensive IFR   Very Intensive IFR
Visi :
Ceiling :
>= 8 km
>= 3000ft
5 to 8 km
1000 to 3000 ft
1500m to 5 km
500 to 1000 ft
800 to 1500m
200 to 500 ft
< 800m
< 200 ft
Symbols :   Thunderstorms  Fog  Heavy snow  Heavy precipitations  Wind > 20 kt
SIGMETs :     Misc.  Thunderstorms  Icing  Turbulence  Mountain Waves  Volcanic Ashes







- Airport Elevation : 1345 ft
- IATA code : FRZ


ETHF - Fritzlar

CURRENT METAR :
  • 120720Z 32004KT 9999 FEW015 BKN023 BKN050 03/00 Q1024 WHT BLU TEMPO WHT

EXPIRED METARs :
  • 120648Z 33005KT 9999 BKN015 BKN035 03/M00 Q1024 WHT BLU TEMPO WHT
  • 120620Z 34003KT 9999 FEW018 BKN035 03/M00 Q1024 BLU BLU TEMPO WHT
  • 120520Z 36005KT 9999 SCT017 BKN055 03/M00 Q1024 BLU BLU TEMPO WHT

TAF TAF ETHF
Valid from the 12 at 06:00 until the 12 at 15:00 UTC


120519Z 1206/1215 34005KT 9999 NSW SCT015 BKN050
TEMPO 1206/1210 36005KT 9999 NSW BKN020
No reported NOTAMs for that airfield.



MET'MAP, your aeronautical weather chart ! - Copyright ORBIFLY December 2007 - Disclaimer

ORBIFLY MET'MAP TEAM :

Programming & Development : Alexandra Zaïnal
Concept & Development : Baudouin d'Aumeries
Co-Development & Prog : Marc-Olivier Méhu
Technical & hardware support : Manuel Goepfert

Contact : metmap@orbifly.com




SOURCES & CREDITS :

   NOAA